EDT,Max TemperatureF,Mean TemperatureF,Min TemperatureF,Max Dew PointF,MeanDew PointF,Min DewpointF,Max Humidity, Mean Humidity, Min Humidity, Max Sea Level PressureIn, Mean Sea Level PressureIn, Min Sea Level PressureIn, Max VisibilityMiles, Mean VisibilityMiles, Min VisibilityMiles, Max Wind SpeedMPH, Mean Wind SpeedMPH, Max Gust SpeedMPH,PrecipitationIn, CloudCover, Events, WindDirDegrees
2013-7-1,75,65,55,55,48,38,63,51,38,30.09,30.03,29.98,10,10,10,18,8,26,0.00,1,,36
2013-7-2,70,63,56,63,57,47,93,73,52,30.08,30.06,30.04,10,8,2,12,4,16,0.70,8,Rain,29
2013-7-3,82,73,64,64,62,60,93,72,51,30.10,30.06,30.02,10,8,3,18,6,24,T,5,,184
2013-7-4,80,71,62,63,61,57,93,71,48,30.15,30.12,30.08,10,9,2,10,4,17,0.00,2,,209
2013-7-5,84,74,63,66,61,51,93,65,36,30.13,30.09,30.05,10,9,3,10,2,14,T,2,,166
2013-7-6,82,76,69,68,67,66,90,76,62,30.10,30.06,30.00,10,10,10,12,4,14,0.00,2,,190
2013-7-7,85,77,68,70,67,64,90,73,55,30.05,30.02,29.97,10,10,10,13,7,16,T,6,Rain,215
2013-7-8,81,76,71,71,69,66,93,80,67,30.05,30.01,29.98,10,10,5,18,6,25,0.19,4,Rain,202
2013-7-9,87,78,68,75,70,64,94,80,65,30.02,29.97,29.88,10,5,0,25,5,32,0.74,5,Fog-Rain-Thunderstorm,213
2013-7-10,84,73,61,75,67,54,88,68,48,29.99,29.87,29.83,10,9,4,22,10,28,0.00,2,,286
2013-7-11,80,69,57,58,55,53,93,68,43,30.09,30.06,30.00,10,10,10,16,6,21,0.00,1,,334
2013-7-12,82,69,56,60,56,52,93,65,37,30.17,30.13,30.09,10,10,8,9,2,14,0.00,0,,75
2013-7-13,84,71,58,63,61,58,90,69,47,30.20,30.17,30.14,10,9,5,9,4,15,0.00,1,,107
2013-7-14,89,77,65,69,66,61,87,67,47,30.25,30.23,30.20,10,10,10,9,3,14,0.00,1,,141
2013-7-15,92,82,71,74,71,67,90,71,52,30.30,30.27,30.24,10,9,6,10,2,13,0.00,2,,221
2013-7-16,91,83,74,74,72,71,94,73,52,30.33,30.29,30.27,10,9,7,12,4,30,0.00,1,,233
2013-7-17,92,83,74,74,72,69,87,71,55,30.31,30.26,30.19,10,10,9,15,5,31,0.00,1,,264
2013-7-18,93,83,73,74,72,70,87,72,56,30.19,30.09,29.97,10,10,8,16,6,21,T,1,,232
2013-7-19,94,82,70,72,70,66,87,67,46,29.97,29.84,29.75,10,9,1,41,11,59,0.65,3,Rain-Thunderstorm,244
2013-7-20,85,78,70,73,66,59,93,69,44,29.94,29.84,29.76,10,10,8,14,6,18,T,3,Rain-Thunderstorm,323
2013-7-21,85,74,63,68,63,57,97,74,51,30.00,29.96,29.91,10,9,2,26,4,33,0.73,4,Rain-Thunderstorm,23
2013-7-22,81,73,64,67,65,62,93,76,58,29.98,29.86,29.77,10,10,8,13,6,20,0.07,3,Rain,164
2013-7-23,81,70,58,68,62,48,84,67,49,29.94,29.78,29.69,10,10,10,24,11,29,T,2,Rain,281
2013-7-24,74,62,50,53,49,46,86,65,44,30.06,30.02,29.96,10,10,10,13,5,26,0.00,2,Rain,15
2013-7-25,76,65,53,58,54,51,93,70,46,30.12,30.09,30.06,10,10,10,9,3,,0.00,1,Rain,204
2013-7-26,77,69,60,61,58,56,90,72,54,30.08,30.00,29.91,10,10,2,18,9,25,T,5,Rain,198
2013-7-27,73,63,53,63,58,47,93,77,61,29.90,29.86,29.81,10,9,5,24,9,29,T,7,Rain,255
2013-7-28,66,60,54,54,51,48,86,71,56,30.00,29.91,29.84,10,10,6,20,9,26,0.11,6,Rain,246
2013-7-29,70,62,54,56,54,51,87,72,57,30.21,30.10,29.99,10,10,10,16,7,20,T,6,Rain,283
2013-7-30,78,63,48,62,54,48,96,72,48,30.24,30.20,30.12,10,7,1,10,2,16,0.00,2,,188
2013-7-31,71,68,64,66,64,61,93,85,76,30.11,30.00,29.94,10,4,1,12,3,14,0.35,8,Rain,263